FW3192 Weather Reports


Display with metric or nautical units.
time (UTC)temp
F
wind
direction
speed
MPH
gust
MPH
rain 1hr
in
rain 24hr
in
rain mn
in
humidity
%
barometer
mb
20260506073102 62 246 12.0 19.0 0.00 0.00 0.00 75 1021.4
20260506071549 63 228 11.0 16.0 0.00 0.00 0.00 73 1021.3
20260506061533 63 183 13.0 18.0 0.00 0.00 0.00 73 1021.0
20260506044535 59 247 10.0 17.0 0.00 0.00 0.00 93 1020.8
20260506043025 59 214 10.0 16.0 0.00 0.00 0.00 94 1020.9
20260506041503 59 213 16.0 22.0 0.00 0.00 0.00 93 1021.0
20260506040003 59 235 5.0 14.0 0.00 0.00 0.00 93 1021.0
20260506034604 60 60 8.0 16.0 0.00 0.00 0.00 93 1021.1
20260506033119 60 258 10.0 19.0 0.00 0.00 0.00 93 1021.1
20260506031556 60 253 14.0 20.0 0.00 0.00 0.00 91 1021.3
20260506030100 62 258 11.0 19.0 0.00 0.00 0.00 81 1021.6
20260506024607 64 275 6.0 10.0 0.00 0.00 0.00 77 1021.5
20260506023050 64 248 6.0 10.0 0.00 0.00 0.00 77 1021.8
20260506021556 64 263 5.0 11.0 0.00 0.00 0.00 76 1022.1
20260506020038 65 293 4.0 13.0 0.00 0.00 0.00 77 1022.1
20260506014537 64 276 5.0 10.0 0.00 0.00 0.00 75 1022.2
20260506013034 64 268 4.0 8.0 0.00 0.00 0.00 76 1022.5
20260506011548 64 269 4.0 10.0 0.00 0.00 0.00 78 1022.5
20260506010027 63 274 3.0 8.0 0.00 0.00 0.00 82 1022.4
20260506004535 62 281 5.0 10.0 0.00 0.00 0.00 84 1022.6
20260506003100 62 281 6.0 9.0 0.00 0.00 0.00 86 1022.6
20260506001558 60 277 6.0 12.0 0.00 0.00 0.00 87 1022.6
20260506000058 60 282 6.0 11.0 0.00 0.00 0.00 89 1022.7
20260505234549 58 309 2.0 6.0 0.00 0.00 0.00 91 1022.8
20260505233049 57 346 3.0 5.0 0.00 0.00 0.00 90 1022.8
20260505231546 57 346 3.0 5.0 0.00 0.00 0.00 90 1022.8
20260505230044 56 308 6.0 9.0 0.00 0.00 0.00 89 1022.7
20260505224543 57 296 5.0 8.0 0.00 0.00 0.00 88 1022.6
20260505223021 57 305 6.0 10.0 0.00 0.00 0.00 87 1022.3
20260505221520 56 348 5.0 9.0 0.00 0.00 0.00 88 1022.2
20260505220031 56 330 5.0 9.0 0.00 0.00 0.00 88 1022.1
20260505214516 56 331 2.0 5.0 0.00 0.00 0.00 88 1021.9
20260505213013 56 346 2.0 6.0 0.00 0.00 0.00 87 1021.9
20260505211507 56 344 4.0 7.0 0.00 0.00 0.00 87 1021.8
20260505210007 56 329 4.0 7.0 0.00 0.00 0.00 87 1021.8
20260505204506 57 315 4.0 7.0 0.00 0.00 0.00 86 1021.8
20260505203010 57 2 4.0 8.0 0.00 0.00 0.00 85 1021.7
20260505201505 57 329 4.0 7.0 0.00 0.00 0.00 84 1021.7
20260505200058 57 340 4.0 8.0 0.00 0.00 0.00 84 1021.6
20260505194601 57 329 4.0 6.0 0.00 0.00 0.00 82 1021.6
20260505193157 57 352 4.0 6.0 0.00 0.00 0.00 82 1021.6
20260505191556 57 310 4.0 6.0 0.00 0.00 0.00 82 1021.6
20260505190014 57 328 3.0 5.0 0.00 0.00 0.00 82 1021.7
20260505184513 57 332 2.0 5.0 0.00 0.00 0.00 82 1021.6
20260505183021 57 313 2.0 6.0 0.00 0.00 0.00 82 1021.6
20260505181513 57 323 3.0 6.0 0.00 0.00 0.00 83 1021.6
20260505180035 57 332 2.0 5.0 0.00 0.00 0.00 83 1021.6
20260505174535 57 341 3.0 5.0 0.00 0.00 0.00 84 1021.7
20260505173033 57 340 2.0 4.0 0.00 0.00 0.00 84 1021.8
20260505171533 57 341 3.0 5.0 0.00 0.00 0.00 83 1021.8
20260505170032 57 39 1.0 6.0 0.00 0.00 0.00 83 1021.9
20260505164550 57 5 3.0 5.0 0.00 0.00 0.00 83 1022.0
20260505163013 57 38 2.0 3.0 0.00 0.00 0.00 83 1022.2
20260505161512 58 33 0.0 1.0 0.00 0.00 0.00 83 1022.3
20260505153013 58 336 1.0 4.0 0.00 0.00 0.00 81 1022.5
20260505151513 58 333 2.0 5.0 0.00 0.00 0.00 81 1022.5
20260505124559 58 331 1.0 3.0 0.00 0.00 0.00 81 1023.4
20260505123038 58 317 1.0 2.0 0.00 0.00 0.00 81 1023.3
20260505121537 58 315 1.0 3.0 0.00 0.00 0.00 80 1023.4
20260505120048 59 325 1.0 3.0 0.00 0.00 0.00 80 1023.4
20260505114536 59 329 1.0 2.0 0.00 0.00 0.00 80 1023.3
20260505113038 59 337 1.0 3.0 0.00 0.00 0.00 80 1023.4
20260505111535 59 325 0.0 0.0 0.00 0.00 0.00 79 1023.5
20260505101516 60 303 0.0 0.0 0.00 0.00 0.00 75 1023.4
20260505100006 60 303 0.0 2.0 0.00 0.00 0.00 75 1023.4
20260505094501 60 308 1.0 4.0 0.00 0.00 0.00 74 1023.4
20260505093107 60 333 0.0 2.0 0.00 0.00 0.00 74 1023.3
20260505091558 60 261 0.0 3.0 0.00 0.00 0.00 71 1023.2
20260505090058 60 243 0.0 0.0 0.00 0.00 0.00 71 1023.0
20260505084558 60 243 0.0 0.0 0.00 0.00 0.00 70 1022.9
20260505083103 61 243 0.0 2.0 0.00 0.00 0.00 70 1022.7
20260505081558 61 250 0.0 3.0 0.00 0.00 0.00 69 1022.5
20260505080044 61 205 1.0 5.0 0.00 0.00 0.00 67 1022.5
20260505074543 61 180 3.0 4.0 0.00 0.00 0.00 67 1022.3